Content
SEND FEEDBACK

Daily
Averages
Monthly
Summary
United States of America

PIERPONT BAY, CALIFORNIA


Home > North America > United States > California
Elevation: 50 feet     Latitude: 34 17N     Longitude: 119 18W

WEATHER
 
SELECT A DAY
Number of Records: 186,941;   Date Range: 1/1/95 - 8/12/14
 
SHARE

PRINT THIS DATA

[ ← Previous Day ]
WEATHER ALMANAC - JANUARY 31, 2013
[ Next Day → ]
[ °C ]   °F
Weather ElementAverageHighLow
Temperature54.5 °F64.9 °F (12:51 pm)44.1 °F (6:51 am)
Dewpoint44.3 °F51.1 °F (4:51 pm)37 °F (4:51 am)
Humidity69.8 %89 % (10:51 pm)50 % (10:51 am)
Barometer30.16 in30.23 in (1:51 am)30.12 in (2:51 pm)
Wind Speed4.4 mph13.8 mph (2:51 pm)
Weather ElementAverage
Visibility9.8 mi
Wind DirectionSE (129.6 °)

Weather ElementTotal
Precipitation---
Heating Degree Days10.5 (Base 65)
Growing Degree Days4.5 (Base 50)
Averaged from 24 records on January 31, 2013
WEATHER CONDITIONS BREAKOUT
WIND DIRECTION BREAKOUT
WEATHER BY HOUR - JANUARY 31, 2013
[ °C ]   °F
Local TimeTemperatureDewpointHumidityBarometerVisibilityWind DirectionWind SpeedGust SpeedPrecipitationEventsConditions
1:51 AM46.9 °F39.0 °F74 %30.23 in10.0 miCalmClear
2:51 AM46.0 °F39.0 °F76 %30.22 in10.0 miNNE (30°)3.5 mphClear
3:51 AM46.0 °F37.9 °F73 %30.19 in10.0 miCalmClear
4:51 AM48.9 °F37.0 °F64 %30.19 in10.0 miNNE (30°)5.8 mphClear
5:51 AM46.9 °F37.0 °F68 %30.19 in10.0 miCalmClear
6:51 AM44.1 °F37.0 °F76 %30.19 in10.0 miNNE (30°)5.8 mphClear
7:51 AM48.9 °F39.9 °F71 %30.20 in10.0 miENE (60°)3.5 mphClear
8:51 AM57.9 °F41.0 °F53 %30.22 in10.0 miCalmClear
9:51 AM62.1 °F45.0 °F53 %30.22 in10.0 miCalmClear
10:51 AM64.0 °F45.0 °F50 %30.21 in10.0 miWNW (290°)8.1 mphClear
11:51 AM64.0 °F46.9 °F54 %30.19 in10.0 miWNW (290°)8.1 mphClear
12:51 PM64.9 °F46.0 °F50 %30.16 in10.0 miNW (310°)8.1 mphClear
1:51 PM63.0 °F45.0 °F52 %30.14 in10.0 miWest (270°)9.2 mphClear
2:51 PM63.0 °F44.1 °F50 %30.12 in10.0 miWest (280°)13.8 mphClear
3:51 PM61.0 °F48.9 °F64 %30.12 in10.0 miWNW (290°)10.4 mphClear
4:51 PM57.9 °F51.1 °F78 %30.12 in10.0 miWNW (290°)9.2 mphClear
5:35 PM55.4 °F50.0 °F82 %30.12 in10.0 miNorthClear
5:51 PM55.0 °F48.9 °F80 %30.12 in10.0 miWest (280°)5.8 mphClear
6:51 PM55.0 °F48.0 °F77 %30.13 in10.0 miWNW (300°)5.8 mphClear
7:51 PM53.1 °F48.9 °F86 %30.13 in10.0 miCalmClear
8:51 PM52.0 °F46.9 °F83 %30.13 in10.0 miNorth (360°)3.5 mphClear
9:51 PM51.1 °F46.9 °F86 %30.12 in8.0 miCalmClear
10:51 PM50.0 °F46.9 °F89 %30.13 in7.0 miCalmClear
11:51 PM50.0 °F46.0 °F86 %30.13 in9.0 miCalmClear
Hourly data recorded from KOXR, located miles away from Pierpont Bay, California







STORIES FROM OUR PARTNERS